Location: Newark
(44.6768°N, 22.5302°E)
Time: 20:15:20
(UTC+00:00)

UKube-1 - Pass Details

Date: 10 July 2022
Orbit: 608 x 615 km, 98.4° (Epoch: 11 August)

Event Time Altitude Azimuth Distance (km) Brightness Sun altitude
Rises 19:33:03 0° 29° (NNE) 2,888 ? -11.3°
Reaches altitude 10° 19:35:48 10° 47° (NE) 1,976 ? -11.6°
Maximum altitude 19:38:53 19° 93° (E) 1,461 ? -12.0°
Enters shadow 19:40:20 16° 119° (ESE) 1,587 ? -12.2°
